Volver al catálogo

STARLINK-31100

ActivoComunicacionesVLEO
NORAD 58714·PAYLOAD·🇺🇸 United States

Lanzado Jan 3, 2024 desde Vandenberg Space Force Base

Loading…

Próximos Pases (próximas 24 horas)

TLE

ActualizadoSource: CelesTrak SupGP

Época: Sep 15, 2026, 02:03 UTC

1 58714C 24002K   26258.08590278 -.00021647  00000+0 -63968-3 0  2589
2 58714  53.1590  68.7497 0001132  81.8876 269.1499 15.34395310    11

Sigue STARLINK-31100 en tiempo real con AllMySat

Download on the App Store